DW6267 Weather Reports


Display with metric or nautical units.
time (UTC)temp
F
wind
direction
speed
MPH
gust
MPH
rain 1hr
in
rain 24hr
in
rain mn
in
humidity
%
barometer
mb
20260902080330 54 97 0.0 0.0 0.00 0.00 0.00 84 1007.2
20260902070348 54 97 0.0 0.0 0.00 0.00 0.00 86 1006.0
20260902060332 57 97 0.0 0.0 0.00 0.00 0.00 83 1005.8
20260902050343 60 97 0.0 0.0 0.00 0.00 0.00 77 1006.1
20260902040347 62 59 0.0 0.0 0.00 0.00 0.00 69 1005.0
20260902030350 67 282 1.0 0.0 0.00 0.00 0.00 56 1004.4
20260902020337 69 347 1.0 0.0 0.00 0.00 0.00 54 1003.7
20260902010336 72 289 0.0 0.0 0.00 0.00 0.00 50 1003.6
20260902000346 75 292 1.0 0.0 0.00 0.00 0.00 46 1002.9
20260901230329 76 16 2.0 0.0 0.00 0.00 0.00 42 1002.8
20260901220343 77 101 0.0 0.0 0.00 0.00 0.00 28 1003.1
20260901210342 76 36 0.0 0.0 0.00 0.00 0.00 32 1004.1
20260901200350 75 60 0.0 0.0 0.00 0.00 0.00 32 1004.3
20260901190409 70 140 0.0 0.0 0.00 0.00 0.00 41 1005.7
20260901180357 65 136 0.0 0.0 0.00 0.00 0.00 53 1006.4
20260901170332 61 140 0.0 0.0 0.00 0.00 0.00 67 1006.3
20260901160331 53 140 0.0 0.0 0.00 0.00 0.00 85 1006.8
20260901150347 47 140 0.0 0.0 0.00 0.00 0.00 91 1007.5
20260901140332 45 140 0.0 0.0 0.00 0.00 0.00 93 1007.8
20260901130348 45 140 0.0 0.0 0.00 0.00 0.00 92 1007.7
20260901120406 47 140 0.0 0.0 0.00 0.00 0.00 89 1007.8
20260901110336 47 140 0.0 0.0 0.00 0.00 0.00 88 1008.2
20260901100345 47 140 0.0 0.0 0.00 0.00 0.00 87 1008.9
20260901090339 48 140 0.0 0.0 0.00 0.00 0.00 87 1008.7